[[{"header":{"parameterUnit":"m.s-1","parameterCategory":1,"la1":30.2991,"la2":30.254,"lo1":-89.0895,"lo2":-89.0444,"dy":0.0017,"dx":0.0017,"nx":28,"ny":28,"refTime":"2025-09-06T03:00:00:Z","depth":0,"parameterNumber":2,"parameterNumberName":"U-component_of_WINDS"},"data":[0,0,0,0,0,0,0,0,0,0,0,0,0,0,0,0,0,0,0,0,0,0,0,0,0,0,0,0,0,0,0,0,0,0,0,0,0,0,0,0,0,0,0,0,0,0,0,0,0,0,0,0,0,0,0,0,0,0,0.3062,0.3063,0,0.3167,0.3169,0.317,0.3208,0.3208,0.3207,0.3207,0.3318,0.3321,0.3325,0,0,0,0,0,0,0,0,0,0,0,0,0,0.2893,0.2896,0.3061,0.3063,0.3064,0.3167,0.3169,0.317,0.3208,0.3208,0.3207,0.3207,0.3317,0.3321,0.3325,0,0,0,0,0,0,0,0,0,0,0,0,0,0.298,0.2897,0.3061,0.3095,0.3099,0.3167,0.3169,0.3171,0.3208,0.3208,0.3207,0.3207,0.3316,0.332,0.3325,0.3367,0,0,0.3341,0.3343,0,0,0,0,0,0,0,0,0.2975,0.2986,0.3089,0.3093,0.3098,0.3174,0.315,0.3237,0.3208,0.3167,0.3207,0.3206,0.3271,0.3279,0.3301,0.3373,0.3377,0.3341,0.3344,0.3346,0.3348,0,0,0,0,0,0,0,0.2969,0.2981,0.3103,0.309,0.3096,0.3106,0.3118,0.3167,0.3221,0.3171,0.3174,0.3185,0.3273,0.3296,0.3303,0.3379,0.3341,0.3345,0.3348,0.335,0.349,0.349,0,0,0,0,0,0,0.2957,0.2976,0.31,0.3107,0.3034,0.3109,0.3122,0.315,0.322,0.323,0.3186,0.3187,0.3287,0.3298,0.3307,0.3361,0.3346,0.3351,0.3354,0.3489,0.349,0.3491,0,0,0,0,0,0,0.2953,0.2967,0.3096,0.3042,0.3059,0.3113,0.3144,0.3152,0.3175,0.3232,0.3242,0.3199,0.3287,0.33,0.3352,0.3365,0.3353,0.3357,0.3488,0.3489,0.349,0.3468,0,0,0,0,0,0,0.2948,0.2966,0.2982,0.3042,0.3062,0.3138,0.3145,0.3155,0.3183,0.3186,0.3247,0.3256,0.3288,0.3344,0.3357,0.3372,0.3361,0.3487,0.3489,0.349,0.3468,0.3468,0.3468,0,0,0,0,0,0.2942,0.2972,0.2983,0.2997,0.3083,0.3139,0.315,0.3185,0.3184,0.3201,0.3237,0.3254,0.3361,0.3349,0.3364,0.338,0.3487,0.3488,0.349,0.3467,0.3468,0.3468,0,0,0,0,0,0,0.2913,0.2981,0.2993,0.3044,0.3085,0.3145,0.3167,0.3184,0.3227,0.3228,0.327,0.3283,0.3331,0.3361,0.3346,0.3424,0.3425,0.343,0.3403,0.3404,0.3404,0.3396,0.3365,0,0,0,0,0,0.2913,0.2951,0.3008,0.3048,0.3067,0.3114,0.3139,0.3162,0.3207,0.3225,0.3265,0.3308,0.3352,0.3379,0.3423,0.3472,0.3486,0.349,0.3491,0.3491,0.3494,0.3522,0.3525,0.3496,0.3496,0.3496,0,0,0.2912,0.2954,0.2976,0.3043,0.3078,0.3117,0.3128,0.317,0.3199,0.3232,0.3282,0.3313,0.3364,0.3414,0.3438,0.344,0.3505,0.3493,0.3492,0.3496,0.3524,0.3526,0.3529,0.3497,0.3497,0.3497,0,0,0.2932,0.2967,0.3003,0.3037,0.3089,0.3119,0.3128,0.3185,0.3206,0.3257,0.3282,0.3318,0.3392,0.3427,0.3455,0.3485,0.3503,0.3498,0.35,0.3527,0.3529,0.3531,0.3542,0.3545,0.3502,0.3502,0.3502,0,0.2925,0.2985,0.302,0.306,0.3088,0.3118,0.3155,0.3186,0.325,0.3269,0.327,0.3362,0.3399,0.3458,0.3465,0.3486,0.3497,0.3492,0.3526,0.3528,0.3531,0.3542,0.3546,0.3501,0.3501,0.3501,0.3501,0,0.2973,0.3014,0.3038,0.3097,0.3128,0.3166,0.3207,0.3235,0.3255,0.3285,0.3336,0.3381,0.3433,0.3448,0.3469,0.351,0.3509,0.3517,0.3519,0.3532,0.3543,0.3547,0.3499,0.35,0.35,0.35,0,0,0.2979,0.3056,0.3064,0.3091,0.315,0.3182,0.3221,0.3271,0.3294,0.3336,0.337,0.3431,0.3439,0.347,0.3495,0.3518,0.3539,0.3523,0.3525,0.3524,0.3586,0.3579,0.3583,0.355,0.3551,0.3552,0.3581,0,0.3006,0.3077,0.3109,0.3166,0.3204,0.3232,0.3266,0.3306,0.3334,0.3371,0.3404,0.3446,0.3453,0.3472,0.3496,0.3531,0.3552,0.3529,0.3583,0.3584,0.3569,0.3589,0.3583,0.3609,0.3586,0.3587,0.3587,0,0.3047,0.3089,0.3149,0.3202,0.3219,0.3249,0.3297,0.3332,0.3377,0.3396,0.343,0.3453,0.3496,0.3494,0.3553,0.3537,0.356,0.3581,0.3583,0.3589,0.3587,0.3596,0.3618,0.3621,0.3594,0.3594,0.3593,0,0.3045,0.3116,0.3161,0.3183,0.3246,0.3266,0.3294,0.3338,0.3366,0.3408,0.3426,0.3473,0.3498,0.3534,0.3569,0.3564,0.3624,0.3626,0.3642,0.3641,0.3654,0.3653,0.3679,0.3668,0.3668,0.3668,0.3668,0,0.3072,0.3108,0.316,0.3188,0.3228,0.3265,0.3304,0.3334,0.3373,0.3407,0.3434,0.3465,0.351,0.3547,0.3574,0.3619,0.363,0.3647,0.3654,0.3645,0.3643,0.3661,0.366,0.3669,0.3669,0.3669,0.3669,0,0.3077,0.3113,0.3164,0.3219,0.3234,0.3261,0.3308,0.3336,0.3366,0.3408,0.342,0.3467,0.3512,0.355,0.3609,0.3628,0.3674,0.3682,0.3658,0.3662,0.3676,0.3674,0.3715,0.3723,0.3706,0.3707,0.3707,0,0.3092,0.312,0.3177,0.3201,0.3228,0.3267,0.3295,0.3332,0.336,0.3412,0.3434,0.348,0.3519,0.3589,0.3629,0.3674,0.3684,0.3695,0.3691,0.368,0.3684,0.3682,0.3685,0.3696,0.3696,0.3696,0.3696,0,0.3114,0.3131,0.317,0.3214,0.3247,0.3284,0.3322,0.3341,0.3384,0.3414,0.346,0.349,0.355,0.3595,0.3644,0.3673,0.3692,0.3696,0.3703,0.3694,0.3678,0.3687,0.3658,0.3696,0.3696,0.3696,0.3696,0.3696,0.3125,0.3151,0.3195,0.3237,0.3269,0.3304,0.3332,0.3365,0.3403,0.3454,0.3473,0.352,0.3564,0.3631,0.366,0.3697,0.3699,0.3708,0.3711,0.3712,0.3711,0.3672,0.3706,0.3706,0.3706,0.3706,0.3706,0,0.3149,0.3178,0.3217,0.3268,0.3301,0.3315,0.3357,0.3384,0.3424,0.3463,0.3501,0.3552,0.3596,0.3638,0.3685,0.3706,0.3716,0.3717,0.3716,0.3722,0.3706,0.3696,0.3708,0.3708,0.3708,0.3708,0.3708,0.3708,0.3165,0.3209,0.323,0.329,0.332,0.3365,0.3388,0.342,0.3451,0.3507,0.3544,0.357,0.3611,0.366,0.3701,0.3712,0.3728,0.3727,0.374,0.3724,0.3723,0.3723,0.3714,0.373,0.373,0.3754,0.3754,0.3754]},{"header":{"parameterUnit":"m.s-1","parameterCategory":1,"la1":30.2991,"la2":30.254,"lo1":-89.0895,"lo2":-89.0444,"dy":0.0017,"dx":0.0017,"nx":28,"ny":28,"refTime":"2025-09-06T03:00:00:Z","depth":0,"parameterNumber":3,"parameterNumberName":"V-component_of_WINDS"},"data":[0,0,0,0,0,0,0,0,0,0,0,0,0,0,0,0,0,0,0,0,0,0,0,0,0,0,0,0,0,0,0,0,0,0,0,0,0,0,0,0,0,0,0,0,0,0,0,0,0,0,0,0,0,0,0,0,0,0,1.9226,1.9227,0,1.9266,1.9267,1.9267,1.9305,1.9305,1.9305,1.9306,1.9341,1.9342,1.9342,0,0,0,0,0,0,0,0,0,0,0,0,0,1.9173,1.9174,1.9226,1.9227,1.9227,1.9266,1.9267,1.9267,1.9304,1.9305,1.9306,1.9306,1.9341,1.9342,1.9342,0,0,0,0,0,0,0,0,0,0,0,0,0,1.9203,1.9174,1.9226,1.9251,1.9253,1.9266,1.9267,1.9268,1.9304,1.9305,1.9306,1.9306,1.9341,1.9342,1.9342,1.9333,0,0,1.9345,1.9345,0,0,0,0,0,0,0,0,1.9201,1.9205,1.9247,1.9249,1.9252,1.9281,1.9261,1.9289,1.9304,1.9285,1.9306,1.9307,1.932,1.9323,1.9329,1.9334,1.9336,1.9345,1.9345,1.9346,1.9346,0,0,0,0,0,0,0,1.9199,1.9203,1.9242,1.9247,1.925,1.9257,1.9262,1.9267,1.9298,1.9287,1.9289,1.9294,1.9322,1.9328,1.933,1.9337,1.9345,1.9345,1.9346,1.9346,1.9331,1.933,0,0,0,0,0,0,1.9194,1.9201,1.9241,1.9243,1.9228,1.9257,1.9263,1.9271,1.9298,1.9303,1.9293,1.9295,1.9326,1.9329,1.9331,1.9319,1.9346,1.9346,1.9347,1.9331,1.933,1.9329,0,0,0,0,0,0,1.9193,1.9198,1.9239,1.9223,1.9229,1.9257,1.9266,1.9272,1.9278,1.9303,1.9308,1.9294,1.9327,1.933,1.9331,1.932,1.9347,1.9347,1.9332,1.9331,1.933,1.9295,0,0,0,0,0,0,1.9192,1.9197,1.9196,1.9223,1.923,1.9241,1.9266,1.9272,1.9279,1.9283,1.9305,1.931,1.9328,1.933,1.9332,1.9322,1.9348,1.9334,1.9332,1.933,1.9297,1.9293,1.9289,0,0,0,0,0,1.919,1.9185,1.9196,1.9201,1.923,1.9241,1.9244,1.9267,1.9279,1.9276,1.9291,1.9309,1.9321,1.933,1.9332,1.9322,1.9334,1.9332,1.933,1.9299,1.9294,1.9289,0,0,0,0,0,0,1.9156,1.9189,1.9202,1.9206,1.922,1.9247,1.9245,1.9261,1.9271,1.9274,1.9299,1.9304,1.9301,1.9312,1.9321,1.9312,1.933,1.9328,1.9305,1.93,1.9296,1.9293,1.9348,0,0,0,0,0,1.9149,1.9157,1.9185,1.9186,1.9192,1.9217,1.9223,1.9239,1.9254,1.926,1.9276,1.9288,1.9294,1.9298,1.9305,1.9299,1.9302,1.9292,1.9288,1.9285,1.9283,1.9275,1.927,1.9323,1.9323,1.9323,0,0,1.9134,1.9154,1.9158,1.9179,1.9193,1.9198,1.9222,1.9228,1.9231,1.926,1.9262,1.9273,1.9288,1.9284,1.9284,1.9293,1.9268,1.9282,1.9279,1.9279,1.9273,1.9268,1.9263,1.9322,1.9322,1.9322,0,0,1.9111,1.9128,1.9129,1.914,1.916,1.9175,1.9175,1.9198,1.9207,1.921,1.923,1.9232,1.9244,1.9252,1.9258,1.9231,1.9246,1.9233,1.9211,1.9203,1.9199,1.9195,1.9183,1.9178,1.9231,1.9231,1.9231,0,1.9091,1.9102,1.9127,1.913,1.9137,1.9163,1.9162,1.9171,1.9191,1.9194,1.9205,1.9216,1.9228,1.9225,1.9218,1.9222,1.922,1.9231,1.9198,1.9195,1.9192,1.918,1.9175,1.9229,1.9229,1.9229,1.923,0,1.9074,1.9081,1.9079,1.9097,1.9104,1.9105,1.9126,1.9129,1.9142,1.9156,1.9154,1.9169,1.9178,1.9178,1.9192,1.9175,1.918,1.9194,1.9213,1.9184,1.9173,1.9169,1.9226,1.9227,1.9227,1.9228,0,0,1.9035,1.9063,1.9062,1.9068,1.9089,1.9093,1.9092,1.9102,1.9102,1.9113,1.9111,1.9117,1.9129,1.9135,1.9149,1.9143,1.9116,1.9157,1.9158,1.9147,1.9094,1.9082,1.9077,1.9126,1.9125,1.9125,1.9091,0,1.9013,1.9017,1.9036,1.9033,1.9036,1.9058,1.9057,1.9067,1.9078,1.9081,1.9092,1.9095,1.9112,1.9115,1.911,1.9121,1.9106,1.9123,1.9121,1.9121,1.9116,1.9072,1.9061,1.9029,1.9088,1.9087,1.9087,0,1.8991,1.9,1.8996,1.9012,1.9014,1.9014,1.9021,1.9024,1.9034,1.9041,1.9046,1.9061,1.9057,1.9074,1.9068,1.9079,1.9078,1.9083,1.9082,1.9082,1.9101,1.9068,1.902,1.9014,1.9081,1.9081,1.9082,0,1.8959,1.897,1.8968,1.8974,1.8993,1.899,1.8998,1.9009,1.9011,1.9016,1.9017,1.9021,1.9023,1.9024,1.9038,1.905,1.9028,1.9048,1.9031,1.9031,1.9026,1.9026,1.8975,1.9028,1.9028,1.9028,1.9028,0,1.8933,1.893,1.8954,1.8953,1.8947,1.8967,1.896,1.8969,1.8978,1.8976,1.8994,1.8992,1.9011,1.9009,1.9019,1.9009,1.9011,1.9014,1.9017,1.9012,1.9011,1.9012,1.9014,1.9027,1.9027,1.9027,1.9027,0,1.8898,1.8915,1.8913,1.893,1.8934,1.8929,1.8942,1.8939,1.8949,1.8946,1.8946,1.8962,1.896,1.8973,1.8974,1.8981,1.8965,1.8972,1.8962,1.8964,1.8946,1.8946,1.8892,1.8884,1.8944,1.8943,1.8943,0,1.8881,1.8878,1.8893,1.8894,1.89,1.8901,1.8903,1.892,1.892,1.8928,1.8923,1.8923,1.8924,1.8919,1.8928,1.8927,1.8933,1.8914,1.8933,1.8927,1.893,1.8929,1.8927,1.891,1.8909,1.8909,1.8908,0,1.8847,1.8853,1.8857,1.8861,1.8862,1.8866,1.8871,1.887,1.8888,1.8886,1.8885,1.8885,1.8884,1.8882,1.8882,1.8886,1.8898,1.8902,1.8897,1.8892,1.8885,1.8886,1.8949,1.8903,1.8904,1.8904,1.8904,1.8904,1.8819,1.8815,1.8824,1.8826,1.883,1.8833,1.883,1.8839,1.8838,1.884,1.8848,1.8844,1.8848,1.8849,1.8851,1.8845,1.8854,1.8849,1.8847,1.8845,1.8841,1.8887,1.8846,1.8846,1.8846,1.8846,1.8846,0,1.8784,1.8789,1.879,1.8795,1.8795,1.8807,1.8811,1.8809,1.8805,1.8808,1.8807,1.8802,1.8799,1.8806,1.8802,1.8796,1.8801,1.8794,1.8794,1.8794,1.8835,1.8838,1.879,1.879,1.879,1.879,1.879,1.879,1.8766,1.876,1.8767,1.8761,1.8766,1.8762,1.8763,1.8763,1.8766,1.8759,1.8757,1.8761,1.8764,1.876,1.8756,1.8758,1.8754,1.8745,1.8748,1.8786,1.8792,1.8797,1.88,1.8745,1.8745,1.8708,1.8708,1.8707]}]]